Casper, WY

4:47 PM MDT on April 26, 2015 (GMT -0600)
Casper Mountain Foothills | | Change Station
CLOSE
Current Station
Personal Weather Station
Location: Casper, WY
Elevation: 5334 ft
Nearby Weather Stations

Elev 5334 ft 42.83 °N, 106.31 °W | Updated 44 seconds ago

Overcast
Overcast
37.0 °F
Feels Like 37 °F
N
2.0
Wind Variable Wind from NNW
Gusts 6.0 mph

Today
High -- | Low -- °F
--% Chance of Precip.
Yesterday
High -- | Low -- °F
Precip. -- in
6:06 AM 8:00 PM
First Quarter, 59% visible
Pressure 30.00 in
Visibility 2.5 miles
Clouds Mostly Cloudy 700 ft
Overcast 1200 ft
Windchill 37 °F
Dew Point 34 °F
Humidity 89%
Rainfall 0.30 in
Snow Depth Not available.
UV 1 out of 12
Pollen .40 out of 12
Air Quality Not available.
Flu Activity Local Activity
SPECI KCPR 262243Z 36017G21KT 2 1/2SM UP BR BKN007 OVC012 02/01 A3000 RMK AO2 UPB2159E21B31SNB21E31 P0000 T00220011

More Conditions Fewer Conditions

Pressure 30.00 in
Visibility 2.5 miles
Clouds Mostly Cloudy 700 ft
Overcast 1200 ft
Windchill 37 °F
Dew Point 34 °F
Humidity 89%
Rainfall 0.30 in
Snow Depth Not available.
UV 1 out of 12
Pollen .40 out of 12
Air Quality Not available.
Flu Activity Local Activity
SPECI KCPR 262243Z 36017G21KT 2 1/2SM UP BR BKN007 OVC012 02/01 A3000 RMK AO2 UPB2159E21B31SNB21E31 P0000 T00220011

More Conditions Fewer Conditions

The full scope of the disaster following a powerful 7.8-magnitude earthquake in Nepal may not come into view for days, but global charities are already sending emergency aid. Click to see how you can help.

10-Day Weather Forecast

Almanac

Astronomy

Apr. 26, 2015 Rise Set
Actual Time
Civil Twilight
Nautical Twilight
Astronomical Twilight
Moon
Length of Visible Light
Length of Day
Tomorrow will be .
, % of the Moon is Illuminated

Today's Extremes

State Highs State Lows

Community

WunderPhotos

Upload Photos

1,817,149 photos uploaded!

WunderBlogs® & News

Nearby

Air Quality

  Air Quality AQ Index Pollutant
Not available.

Snow Depth

Station Depth Elevation

Earthquake Activity

City Distance Mag. Time & Date
Minimum magnitude displayed is 2.5.

Coastal Water Temperatures

Place Temperature

Stations

Nearby Weather Stations

Station Location Temp. Windchill Dew Point Humidity Wind Precip. Elev Updated Type